NSZ1258 ENGM-EHAM

Flight info

Callsign NSZ1258
Flight time 1h 21m
Altitude 38000
Route VIPPA DCT KUGAL DCT EEL DCT BLUFA
Aircraft B738/M-SDE2E3FGHIRWXY/LB1

Departure

Time 2026-04-30 04:05
Airport Oslo-Gardermoen International Airport (ENGM)

Arrival

Time 2026-04-30 05:27
Airport Amsterdam Airport Schiphol (EHAM)
Time Latitude Longitude Altitude Speed Heading
2026-04-30 03:19 60.19601 11.09286 675 ft 0 kts 194°
2026-04-30 03:46 60.19608 11.09289 675 ft 3 kts 193°
2026-04-30 03:46 60.19627 11.09298 674 ft 3 kts 192°
2026-04-30 03:46 60.19647 11.09307 673 ft 3 kts 192°
2026-04-30 03:46 60.19667 11.09316 671 ft 3 kts 199°
2026-04-30 03:47 60.19684 11.09332 672 ft 3 kts 228°
2026-04-30 03:47 60.19690 11.09350 673 ft 1 kts 283°
2026-04-30 03:47 60.19690 11.09353 673 ft 1 kts 285°
2026-04-30 03:53 60.19691 11.09348 674 ft 1 kts 285°
2026-04-30 03:54 60.19697 11.09303 674 ft 5 kts 285°
2026-04-30 03:54 60.19710 11.09212 675 ft 7 kts 286°
2026-04-30 03:54 60.19724 11.09112 673 ft 7 kts 286°
2026-04-30 03:54 60.19738 11.09016 671 ft 7 kts 286°
2026-04-30 03:55 60.19751 11.08923 674 ft 7 kts 286°
2026-04-30 03:55 60.19764 11.08831 674 ft 7 kts 285°
2026-04-30 03:55 60.19776 11.08741 674 ft 7 kts 280°
2026-04-30 03:55 60.19757 11.08665 672 ft 7 kts 214°
2026-04-30 03:56 60.19714 11.08633 671 ft 7 kts 197°
2026-04-30 03:56 60.19671 11.08607 673 ft 6 kts 196°
2026-04-30 03:56 60.19628 11.08583 673 ft 6 kts 196°
2026-04-30 03:56 60.19587 11.08558 672 ft 6 kts 196°
2026-04-30 03:57 60.19546 11.08535 672 ft 6 kts 196°
2026-04-30 03:57 60.19506 11.08511 672 ft 6 kts 196°
2026-04-30 03:57 60.19467 11.08489 672 ft 6 kts 196°
2026-04-30 03:57 60.19428 11.08467 671 ft 6 kts 195°
2026-04-30 03:58 60.19390 11.08445 671 ft 6 kts 195°
2026-04-30 03:58 60.19352 11.08424 671 ft 6 kts 195°
2026-04-30 03:58 60.19314 11.08403 671 ft 6 kts 195°
2026-04-30 03:58 60.19278 11.08383 670 ft 5 kts 195°
2026-04-30 03:59 60.19242 11.08360 670 ft 5 kts 197°
2026-04-30 03:59 60.19206 11.08338 670 ft 5 kts 196°
2026-04-30 03:59 60.19171 11.08318 670 ft 5 kts 195°
2026-04-30 03:59 60.19137 11.08299 669 ft 5 kts 195°
2026-04-30 04:00 60.19103 11.08281 669 ft 5 kts 195°
2026-04-30 04:00 60.19069 11.08262 669 ft 5 kts 195°
2026-04-30 04:00 60.19036 11.08243 669 ft 5 kts 197°
2026-04-30 04:00 60.19002 11.08222 666 ft 5 kts 197°
2026-04-30 04:01 60.18963 11.08199 668 ft 6 kts 197°
2026-04-30 04:01 60.18916 11.08173 668 ft 7 kts 194°
2026-04-30 04:01 60.18864 11.08146 666 ft 8 kts 195°
2026-04-30 04:01 60.18808 11.08113 667 ft 9 kts 198°
2026-04-30 04:02 60.18747 11.08074 666 ft 9 kts 198°
2026-04-30 04:02 60.18683 11.08038 667 ft 9 kts 195°
2026-04-30 04:02 60.18621 11.08004 666 ft 9 kts 195°
2026-04-30 04:02 60.18561 11.07962 666 ft 9 kts 214°
2026-04-30 04:03 60.18543 11.07855 665 ft 9 kts 285°
2026-04-30 04:03 60.18560 11.07730 664 ft 9 kts 285°
2026-04-30 04:03 60.18579 11.07603 665 ft 10 kts 287°
2026-04-30 04:03 60.18617 11.07473 663 ft 11 kts 301°
2026-04-30 04:04 60.18645 11.07459 664 ft 4 kts 11°
2026-04-30 04:04 60.18672 11.07474 664 ft 4 kts 15°
2026-04-30 04:04 60.18777 11.07532 665 ft 45 kts 16°
2026-04-30 04:04 60.19332 11.07852 669 ft 118 kts 16°
2026-04-30 04:05 60.20328 11.08425 714 ft 174 kts 16°
2026-04-30 04:05 60.21561 11.09180 1278 ft 192 kts 17°
2026-04-30 04:05 60.22867 11.09989 2186 ft 194 kts 15°
2026-04-30 04:05 60.24160 11.10715 3045 ft 201 kts 14°
2026-04-30 04:06 60.25591 11.11403 3283 ft 226 kts
2026-04-30 04:06 60.27192 11.11139 3829 ft 235 kts 350°
2026-04-30 04:06 60.28881 11.10581 4286 ft 254 kts 347°
2026-04-30 04:06 60.30487 11.09120 5154 ft 256 kts 320°
2026-04-30 04:07 60.31557 11.06262 6090 ft 260 kts 294°
2026-04-30 04:07 60.31842 11.02643 6937 ft 269 kts 266°
2026-04-30 04:07 60.31301 10.99055 7767 ft 276 kts 243°
2026-04-30 04:08 60.29000 10.92689 9473 ft 284 kts 235°
2026-04-30 04:08 60.27767 10.89520 10319 ft 288 kts 235°
2026-04-30 04:08 60.26518 10.86292 10871 ft 301 kts 236°
2026-04-30 04:08 60.25184 10.82814 11045 ft 327 kts 236°
2026-04-30 04:09 60.23747 10.79051 11307 ft 348 kts 236°
2026-04-30 04:09 60.22249 10.75127 11881 ft 357 kts 236°
2026-04-30 04:09 60.20748 10.71195 12605 ft 361 kts 236°
2026-04-30 04:09 60.19208 10.67161 13344 ft 366 kts 236°
2026-04-30 04:10 60.17573 10.63179 14023 ft 375 kts 227°
2026-04-30 04:10 60.15426 10.60076 14644 ft 387 kts 210°
2026-04-30 04:10 60.12853 10.58329 15304 ft 395 kts 193°
2026-04-30 04:10 60.10124 10.57340 15965 ft 399 kts 191°
2026-04-30 04:11 60.07397 10.56464 16578 ft 404 kts 190°
2026-04-30 04:11 60.04598 10.55581 17161 ft 409 kts 190°
2026-04-30 04:11 60.01773 10.54670 17800 ft 413 kts 191°
2026-04-30 04:11 59.98925 10.53725 18436 ft 417 kts 191°
2026-04-30 04:12 59.96043 10.52748 18997 ft 421 kts 191°
2026-04-30 04:12 59.93140 10.51750 19542 ft 425 kts 191°
2026-04-30 04:12 59.90255 10.50753 20095 ft 427 kts 191°
2026-04-30 04:12 59.87302 10.49730 20650 ft 430 kts 191°
2026-04-30 04:13 59.84327 10.48701 21188 ft 433 kts 191°
2026-04-30 04:13 59.81377 10.47683 21699 ft 437 kts 191°
2026-04-30 04:13 59.78369 10.46648 22219 ft 440 kts 191°
2026-04-30 04:13 59.75339 10.45607 22728 ft 443 kts 191°
2026-04-30 04:14 59.72286 10.44561 23236 ft 446 kts 191°
2026-04-30 04:14 59.69214 10.43510 23717 ft 450 kts 192°
2026-04-30 04:14 59.66111 10.42451 24166 ft 453 kts 192°
2026-04-30 04:14 59.62993 10.41389 24574 ft 455 kts 191°
2026-04-30 04:15 59.59862 10.40324 24982 ft 457 kts 191°
2026-04-30 04:15 59.56745 10.39266 25357 ft 460 kts 191°
2026-04-30 04:15 59.53575 10.38193 25739 ft 463 kts 191°
2026-04-30 04:15 59.50392 10.37118 26128 ft 465 kts 191°
2026-04-30 04:16 59.47188 10.36038 26510 ft 467 kts 191°
2026-04-30 04:16 59.43961 10.34952 26859 ft 470 kts 191°
2026-04-30 04:16 59.40727 10.33866 27222 ft 473 kts 191°
2026-04-30 04:16 59.37479 10.32777 27582 ft 475 kts 191°
2026-04-30 04:17 59.34215 10.31684 27932 ft 477 kts 191°
2026-04-30 04:17 59.30933 10.30588 28257 ft 480 kts 191°
2026-04-30 04:17 59.27672 10.29500 28576 ft 482 kts 191°
2026-04-30 04:17 59.24351 10.28395 28909 ft 484 kts 191°
2026-04-30 04:18 59.21022 10.27289 29230 ft 486 kts 191°
2026-04-30 04:18 59.17666 10.26178 29520 ft 489 kts 191°
2026-04-30 04:18 59.14280 10.25352 29810 ft 492 kts 186°
2026-04-30 04:18 59.10858 10.24893 30109 ft 494 kts 184°
2026-04-30 04:19 59.07416 10.24541 30394 ft 496 kts 184°
2026-04-30 04:19 59.03957 10.24174 30661 ft 497 kts 184°
2026-04-30 04:19 59.00545 10.23752 30995 ft 496 kts 185°
2026-04-30 04:19 58.97085 10.23278 31392 ft 494 kts 186°
2026-04-30 04:20 58.93695 10.22283 31746 ft 492 kts 194°
2026-04-30 04:20 58.90427 10.20347 32022 ft 490 kts 203°
2026-04-30 04:20 58.87285 10.17992 32330 ft 489 kts 203°
2026-04-30 04:20 58.84123 10.15580 32658 ft 488 kts 203°
2026-04-30 04:21 58.80963 10.13174 32988 ft 488 kts 203°
2026-04-30 04:21 58.77800 10.10791 33270 ft 488 kts 203°
2026-04-30 04:21 58.74633 10.08433 33563 ft 488 kts 202°
2026-04-30 04:21 58.71461 10.06095 33884 ft 487 kts 202°
2026-04-30 04:22 58.68294 10.03778 34204 ft 486 kts 202°
2026-04-30 04:22 58.65125 10.01469 34455 ft 486 kts 202°
2026-04-30 04:22 58.61992 9.99194 34685 ft 486 kts 202°
2026-04-30 04:22 58.58820 9.96895 34939 ft 486 kts 202°
2026-04-30 04:23 58.55658 9.94607 35187 ft 485 kts 202°
2026-04-30 04:23 58.52498 9.92324 35391 ft 486 kts 202°
2026-04-30 04:23 58.49334 9.90041 35613 ft 485 kts 202°
2026-04-30 04:23 58.46163 9.87758 35865 ft 484 kts 202°
2026-04-30 04:24 58.43048 9.85518 36105 ft 484 kts 202°
2026-04-30 04:24 58.39893 9.83254 36297 ft 484 kts 202°
2026-04-30 04:24 58.36737 9.80994 36509 ft 484 kts 201°
2026-04-30 04:24 58.33579 9.78736 36738 ft 484 kts 201°
2026-04-30 04:25 58.30422 9.76485 36974 ft 483 kts 201°
2026-04-30 04:25 58.27266 9.74237 37154 ft 483 kts 201°
2026-04-30 04:25 58.24113 9.71996 37354 ft 483 kts 201°
2026-04-30 04:25 58.21002 9.69790 37578 ft 482 kts 201°
2026-04-30 04:26 58.17846 9.67555 37825 ft 481 kts 201°
2026-04-30 04:26 58.14708 9.65338 38026 ft 481 kts 201°
2026-04-30 04:26 58.11571 9.63125 38202 ft 481 kts 201°
2026-04-30 04:26 58.08469 9.60941 38369 ft 480 kts 201°
2026-04-30 04:27 58.05336 9.58739 38435 ft 481 kts 201°
2026-04-30 04:27 57.99035 9.54323 38446 ft 483 kts 201°
2026-04-30 04:28 57.92731 9.49923 38438 ft 482 kts 201°
2026-04-30 04:28 57.86471 9.45569 38441 ft 481 kts 201°
2026-04-30 04:29 57.80185 9.41214 38450 ft 480 kts 201°
2026-04-30 04:29 57.74974 9.37615 38447 ft 480 kts 201°
2026-04-30 04:30 57.68703 9.33299 38461 ft 480 kts 201°
2026-04-30 04:30 57.62428 9.28997 38459 ft 480 kts 201°
2026-04-30 04:31 57.56150 9.24708 38469 ft 480 kts 201°
2026-04-30 04:31 57.49908 9.20459 38467 ft 481 kts 200°
2026-04-30 04:32 57.43602 9.16183 38478 ft 482 kts 200°
2026-04-30 04:32 57.37285 9.11915 38477 ft 483 kts 200°
2026-04-30 04:33 57.30949 9.07649 38489 ft 484 kts 200°
2026-04-30 04:33 57.24641 9.03418 38487 ft 485 kts 200°
2026-04-30 04:34 57.18282 8.99169 38500 ft 485 kts 200°
2026-04-30 04:34 57.11915 8.94929 38494 ft 486 kts 200°
2026-04-30 04:35 57.05576 8.90724 38502 ft 486 kts 200°
2026-04-30 04:35 56.99204 8.86512 38501 ft 486 kts 200°
2026-04-30 04:36 56.92820 8.82308 38504 ft 486 kts 200°
2026-04-30 04:36 56.86488 8.78153 38506 ft 486 kts 200°
2026-04-30 04:37 56.80111 8.73983 38513 ft 485 kts 200°
2026-04-30 04:37 56.73744 8.69836 38510 ft 485 kts 200°
2026-04-30 04:38 56.67428 8.65735 38517 ft 485 kts 199°
2026-04-30 04:38 56.61074 8.61625 38513 ft 484 kts 199°
2026-04-30 04:39 56.54716 8.57528 38524 ft 484 kts 199°
2026-04-30 04:39 56.48351 8.53440 38518 ft 484 kts 199°
2026-04-30 04:40 56.42022 8.49390 38528 ft 484 kts 199°
2026-04-30 04:40 56.35650 8.45327 38522 ft 485 kts 199°
2026-04-30 04:41 56.29299 8.41291 38538 ft 485 kts 199°
2026-04-30 04:41 56.22913 8.37248 38528 ft 486 kts 199°
2026-04-30 04:42 56.16526 8.33218 38533 ft 486 kts 199°
2026-04-30 04:42 56.10130 8.29197 38526 ft 487 kts 199°
2026-04-30 04:43 56.03758 8.25205 38535 ft 488 kts 199°
2026-04-30 04:43 55.97332 8.21194 38530 ft 488 kts 199°
2026-04-30 04:44 55.90902 8.17193 38541 ft 489 kts 199°
2026-04-30 04:44 55.84507 8.13229 38531 ft 490 kts 199°
2026-04-30 04:45 55.78064 8.09249 38542 ft 490 kts 199°
2026-04-30 04:45 55.71605 8.05273 38534 ft 491 kts 199°
2026-04-30 04:46 55.65141 8.01307 38539 ft 491 kts 199°
2026-04-30 04:46 55.58716 7.97379 38531 ft 491 kts 198°
2026-04-30 04:47 55.52242 7.93436 38540 ft 491 kts 198°
2026-04-30 04:47 55.45779 7.89512 38531 ft 491 kts 198°
2026-04-30 04:48 55.39358 7.85627 38537 ft 491 kts 198°
2026-04-30 04:48 55.32883 7.81724 38532 ft 491 kts 198°
2026-04-30 04:49 55.26418 7.77839 38542 ft 491 kts 198°
2026-04-30 04:49 55.19953 7.73968 38539 ft 491 kts 198°
2026-04-30 04:50 55.13491 7.70112 38537 ft 490 kts 198°
2026-04-30 04:50 55.07059 7.66286 38532 ft 490 kts 198°
2026-04-30 04:51 55.00591 7.62451 38537 ft 490 kts 198°
2026-04-30 04:51 54.94093 7.58789 38528 ft 490 kts 196°
2026-04-30 04:52 54.87596 7.55320 38534 ft 490 kts 196°
2026-04-30 04:52 54.81057 7.51837 38528 ft 490 kts 196°
2026-04-30 04:53 54.74567 7.48359 38537 ft 490 kts 196°
2026-04-30 04:53 54.68027 7.44850 38522 ft 491 kts 196°
2026-04-30 04:54 54.61537 7.41379 38529 ft 491 kts 196°
2026-04-30 04:54 54.55005 7.37898 38519 ft 491 kts 196°
2026-04-30 04:55 54.48472 7.34430 38528 ft 491 kts 195°
2026-04-30 04:55 54.41919 7.30963 38521 ft 491 kts 195°
2026-04-30 04:56 54.35412 7.27531 38526 ft 491 kts 195°
2026-04-30 04:56 54.28861 7.24087 38522 ft 492 kts 195°
2026-04-30 04:57 54.22313 7.20657 38526 ft 491 kts 195°
2026-04-30 04:57 54.15802 7.17257 38518 ft 491 kts 195°
2026-04-30 04:58 54.09251 7.13848 38520 ft 491 kts 195°
2026-04-30 04:58 54.02700 7.10450 38517 ft 491 kts 195°
2026-04-30 04:58 53.99463 7.08775 38151 ft 497 kts 195°
2026-04-30 04:59 53.96143 7.07061 37626 ft 496 kts 195°
2026-04-30 04:59 53.92845 7.05359 37040 ft 494 kts 194°
2026-04-30 04:59 53.89558 7.03666 36457 ft 493 kts 194°
2026-04-30 04:59 53.86271 7.01976 35821 ft 494 kts 194°
2026-04-30 05:00 53.82974 7.00284 35191 ft 495 kts 194°
2026-04-30 05:00 53.79709 6.98612 34518 ft 497 kts 193°
2026-04-30 05:00 53.76387 6.96915 33755 ft 499 kts 193°
2026-04-30 05:00 53.73056 6.95214 33023 ft 499 kts 193°
2026-04-30 05:01 53.69736 6.93521 32523 ft 495 kts 193°
2026-04-30 05:01 53.66447 6.91844 32026 ft 491 kts 193°
2026-04-30 05:01 53.63216 6.90201 31545 ft 487 kts 193°
2026-04-30 05:01 53.59979 6.88557 31070 ft 483 kts 193°
2026-04-30 05:02 53.56763 6.86927 30601 ft 479 kts 193°
2026-04-30 05:02 53.53575 6.85317 29743 ft 473 kts 195°
2026-04-30 05:02 53.50501 6.83764 29475 ft 461 kts 195°
2026-04-30 05:02 53.47426 6.82213 29109 ft 452 kts 194°
2026-04-30 05:03 53.44465 6.80728 28662 ft 446 kts 194°
2026-04-30 05:03 53.41503 6.79245 28196 ft 441 kts 194°
2026-04-30 05:03 53.38579 6.77776 27728 ft 436 kts 194°
2026-04-30 05:03 53.35686 6.76326 27251 ft 432 kts 194°
2026-04-30 05:04 53.32814 6.74886 26782 ft 428 kts 194°
2026-04-30 05:04 53.29971 6.73466 26333 ft 425 kts 194°
2026-04-30 05:04 53.27152 6.72061 25887 ft 421 kts 194°
2026-04-30 05:04 53.24353 6.70665 25439 ft 418 kts 194°
2026-04-30 05:05 53.21605 6.69296 25003 ft 415 kts 194°
2026-04-30 05:05 53.18824 6.67913 24565 ft 413 kts 194°
2026-04-30 05:05 53.16122 6.66324 24124 ft 412 kts 202°
2026-04-30 05:06 53.11267 6.61609 23609 ft 404 kts 211°
2026-04-30 05:06 53.08876 6.59107 23245 ft 406 kts 211°
2026-04-30 05:06 53.06487 6.56617 22827 ft 402 kts 210°
2026-04-30 05:06 53.04118 6.54167 22373 ft 399 kts 210°
2026-04-30 05:07 53.01762 6.51747 21930 ft 396 kts 210°
2026-04-30 05:07 52.99420 6.49354 21488 ft 394 kts 209°
2026-04-30 05:07 52.97087 6.46980 21044 ft 392 kts 209°
2026-04-30 05:07 52.94795 6.44650 20617 ft 390 kts 209°
2026-04-30 05:08 52.92481 6.42299 20182 ft 388 kts 209°
2026-04-30 05:08 52.90178 6.39961 19748 ft 386 kts 209°
2026-04-30 05:08 52.87880 6.37635 19283 ft 386 kts 208°
2026-04-30 05:08 52.85598 6.35290 18838 ft 386 kts 212°
2026-04-30 05:09 52.83554 6.32487 18355 ft 387 kts 223°
2026-04-30 05:09 52.81805 6.29066 17791 ft 389 kts 234°
2026-04-30 05:09 52.80302 6.25358 17359 ft 386 kts 235°
2026-04-30 05:09 52.78824 6.21650 16892 ft 384 kts 235°
2026-04-30 05:10 52.77377 6.18012 16464 ft 382 kts 235°
2026-04-30 05:10 52.75899 6.14311 16030 ft 380 kts 235°
2026-04-30 05:10 52.74452 6.10693 15690 ft 375 kts 235°
2026-04-30 05:10 52.73041 6.07160 15401 ft 370 kts 235°
2026-04-30 05:11 52.71593 6.03679 15069 ft 365 kts 233°
2026-04-30 05:11 52.70105 6.00299 14687 ft 363 kts 232°
2026-04-30 05:11 52.68613 5.96947 14290 ft 362 kts 232°
2026-04-30 05:11 52.67130 5.93596 13846 ft 360 kts 232°
2026-04-30 05:12 52.65665 5.90262 13420 ft 359 kts 232°
2026-04-30 05:12 52.64212 5.86935 13005 ft 357 kts 232°
2026-04-30 05:12 52.62770 5.83625 12599 ft 355 kts 232°
2026-04-30 05:12 52.61354 5.80371 12206 ft 353 kts 232°
2026-04-30 05:13 52.59932 5.77103 11814 ft 351 kts 232°
2026-04-30 05:13 52.58511 5.73836 11421 ft 349 kts 232°
2026-04-30 05:13 52.57104 5.70607 11061 ft 346 kts 232°
2026-04-30 05:13 52.55720 5.67429 10917 ft 336 kts 231°
2026-04-30 05:14 52.54387 5.64373 10761 ft 328 kts 231°
2026-04-30 05:14 52.53072 5.61369 10616 ft 319 kts 231°
2026-04-30 05:14 52.51786 5.58436 10485 ft 311 kts 231°
2026-04-30 05:14 52.50526 5.55626 10430 ft 300 kts 228°
2026-04-30 05:15 52.49226 5.52978 10348 ft 297 kts 227°
2026-04-30 05:15 52.47882 5.50322 9902 ft 303 kts 226°
2026-04-30 05:15 52.46537 5.47668 9605 ft 301 kts 226°
2026-04-30 05:15 52.45212 5.45041 9365 ft 297 kts 226°
2026-04-30 05:16 52.43902 5.42434 9136 ft 293 kts 226°
2026-04-30 05:16 52.42628 5.39894 8908 ft 290 kts 226°
2026-04-30 05:16 52.41351 5.37346 8681 ft 288 kts 226°
2026-04-30 05:16 52.40085 5.34818 8466 ft 286 kts 226°
2026-04-30 05:17 52.38825 5.32303 8256 ft 284 kts 226°
2026-04-30 05:17 52.37571 5.29806 8037 ft 284 kts 226°
2026-04-30 05:17 52.36742 5.28159 7894 ft 283 kts 226°
2026-04-30 05:17 52.35490 5.25673 7674 ft 282 kts 226°
2026-04-30 05:18 52.34246 5.23201 7464 ft 281 kts 226°
2026-04-30 05:18 52.32999 5.20731 7250 ft 281 kts 226°
2026-04-30 05:18 52.31346 5.17456 6957 ft 280 kts 226°
2026-04-30 05:18 52.30508 5.15796 6797 ft 280 kts 226°
2026-04-30 05:19 52.29286 5.13374 6578 ft 280 kts 226°
2026-04-30 05:19 52.28045 5.10919 6347 ft 278 kts 226°
2026-04-30 05:19 52.26818 5.08497 6126 ft 275 kts 226°
2026-04-30 05:19 52.25606 5.06109 5910 ft 271 kts 225°
2026-04-30 05:20 52.24355 5.03855 5688 ft 263 kts 213°
2026-04-30 05:20 52.22860 5.02213 5503 ft 255 kts 205°
2026-04-30 05:20 52.21354 5.00810 5311 ft 250 kts 203°
2026-04-30 05:20 52.19845 4.99417 5117 ft 247 kts 204°
2026-04-30 05:21 52.18369 4.98025 4919 ft 244 kts 204°
2026-04-30 05:21 52.16911 4.96627 4731 ft 242 kts 204°
2026-04-30 05:21 52.15472 4.95237 4549 ft 239 kts 204°
2026-04-30 05:21 52.14047 4.93857 4366 ft 237 kts 204°
2026-04-30 05:22 52.12639 4.92492 4192 ft 235 kts 205°
2026-04-30 05:22 52.11449 4.90714 3967 ft 243 kts 234°
2026-04-30 05:22 52.10998 4.87972 3602 ft 255 kts 266°
2026-04-30 05:22 52.11005 4.85128 3302 ft 256 kts 268°
2026-04-30 05:23 52.11136 4.82219 2946 ft 259 kts 285°
2026-04-30 05:23 52.12004 4.79723 2598 ft 250 kts 317°
2026-04-30 05:23 52.13367 4.78121 2274 ft 235 kts 334°
2026-04-30 05:23 52.14791 4.76928 2010 ft 223 kts 338°
2026-04-30 05:24 52.16175 4.76423 1988 ft 194 kts 11°
2026-04-30 05:24 52.17542 4.76626 2026 ft 198 kts 11°
2026-04-30 05:24 52.18899 4.76779 1994 ft 192 kts 11°
2026-04-30 05:24 52.20214 4.76908 1766 ft 183 kts 11°
2026-04-30 05:25 52.21439 4.77018 1527 ft 169 kts 12°
2026-04-30 05:25 52.22599 4.77130 1302 ft 165 kts 11°
2026-04-30 05:25 52.23756 4.77235 1118 ft 166 kts 11°
2026-04-30 05:25 52.24897 4.77351 887 ft 168 kts 12°
2026-04-30 05:26 52.26035 4.77486 631 ft 160 kts
2026-04-30 05:26 52.27133 4.77594 435 ft 157 kts
2026-04-30 05:26 52.28246 4.77636 246 ft 162 kts
2026-04-30 05:26 52.29380 4.77760 15 ft 162 kts
2026-04-30 05:27 52.30407 4.77862 -1 ft 128 kts
2026-04-30 05:27 52.31005 4.77914 -6 ft 38 kts
2026-04-30 05:27 52.31209 4.77931 -3 ft 16 kts
2026-04-30 05:27 52.31317 4.77937 -3 ft 15 kts 348°
2026-04-30 05:28 52.31347 4.77860 -3 ft 7 kts 255°
2026-04-30 05:28 52.31318 4.77802 -3 ft 7 kts 227°
2026-04-30 05:28 52.31305 4.77778 -4 ft 0 kts 235°
2026-04-30 05:28 52.31305 4.77777 -4 ft 0 kts 235°
2026-04-30 05:29 52.31297 4.77757 -4 ft 5 kts 238°
2026-04-30 05:29 52.31281 4.77663 -4 ft 13 kts 268°
2026-04-30 05:29 52.31250 4.77513 -4 ft 16 kts 204°
2026-04-30 05:29 52.31137 4.77497 -4 ft 16 kts 184°
2026-04-30 05:30 52.31078 4.77383 -4 ft 15 kts 271°
2026-04-30 05:30 52.31081 4.77213 -4 ft 15 kts 272°
2026-04-30 05:30 52.31066 4.77126 -4 ft 5 kts 187°
2026-04-30 05:30 52.31034 4.77121 -4 ft 5 kts 184°
2026-04-30 05:31 52.31008 4.77118 -4 ft 0 kts 185°
2026-04-30 05:31 52.31007 4.77118 -4 ft 0 kts 185°
2026-04-30 05:31 52.31006 4.77118 -4 ft 0 kts 185°